Weather History for Rolla, MO

Change the Weather History Date:

Wednesday, June 5, 2013

  Actual Average Record
Temperature  
Mean Temperature 65 °F 70 °F  
Max Temperature 74 °F 80 °F 95 °F (1898)
Min Temperature 56 °F 59 °F 46 °F (1993)
Degree Days  
Heating Degree Days 0 1  
Month to date heating degree days 12 5  
Since 1 June heating degree days 12 5  
Since 1 July heating degree days 4952 4839  
Cooling Degree Days 0 5  
Month to date cooling degree days 3 25  
Year to date cooling degree days 110 132  
Since 1 June cooling degree days 3 25  
Growing Degree Days 15 (Base 50)    
Moisture  
Dew Point 60 °F    
Average Humidity 81    
Maximum Humidity 93    
Minimum Humidity 68    
Precipitation  
Precipitation 0.13 in 0.16 in 1.36 in (1947)
Month to date precipitation 0.37 0.82  
Year to date precipitation 21.67 17.63  
Sea Level Pressure  
Sea Level Pressure 29.92 in    
Wind  
Wind Speed 6 mph (ENE)    
Max Wind Speed 15 mph    
Max Gust Speed 20 mph    
Visibility 7 miles    
Events Rain    
T = Trace of Precipitation, MM = Missing Value Source: NWS Daily Summary

Daily Weather History Graph

Daily Weather History Graph

Search for Another Location

Airport:

Trip Planner

Search our weather history database for the weather conditions in past years. The results will help you decide how hot, cold, wet, or windy it might be!

Date:

Astronomy

Jun. 05, 2013 Rise Set
Actual Time 5:44 AM CDT 8:27 PM CDT
Civil Twilight 5:13 AM CDT 8:58 PM CDT
Nautical Twilight 4:34 AM CDT 9:37 PM CDT
Astronomical Twilight 3:50 AM CDT 10:21 PM CDT
Moon 3:46 AM CDT (6/5) 5:55 PM CDT (6/5)
Length of Visible Light 15h 44m
Length of Day
14h 42m
Waning Crescent, 8% of the Moon is Illuminated
Jun 5
Waning Crescent
Jun 8
New
Jun 16
First Quarter
Jun 23
Full
Jun 29
Last Quarter

Hourly Weather History & Observations

Time (CDT) Temp. Dew Point Humidity Pressure Visibility Wind Dir Wind Speed Gust Speed Precip Events Conditions
12:53 AM 60.1 °F 57.0 °F 90% 29.97 in 9.0 mi East 8.1 mph - N/A   Clear
1:53 AM 57.9 °F 55.9 °F 93% 29.99 in 8.0 mi East 4.6 mph - N/A   Clear
2:53 AM 57.9 °F 55.9 °F 93% 29.98 in 7.0 mi East 4.6 mph - N/A   Clear
3:53 AM 57.0 °F 55.0 °F 93% 29.98 in 7.0 mi ESE 6.9 mph - N/A   Clear
4:53 AM 57.0 °F 55.0 °F 93% 29.97 in 8.0 mi East 5.8 mph - N/A   Clear
5:53 AM 57.0 °F 55.0 °F 93% 29.97 in 6.0 mi ESE 6.9 mph - N/A   Clear
6:53 AM 59.0 °F 55.9 °F 90% 29.95 in 7.0 mi ESE 8.1 mph - N/A   Clear
7:53 AM 63.0 °F 57.9 °F 84% 29.95 in 10.0 mi SE 5.8 mph - N/A   Clear
8:53 AM 64.9 °F 59.0 °F 81% 29.97 in 10.0 mi ESE 6.9 mph - N/A   Clear
9:53 AM 68.0 °F 61.0 °F 78% 29.97 in 10.0 mi SSE 4.6 mph - N/A   Clear
10:53 AM 71.1 °F 62.1 °F 73% 29.95 in 10.0 mi SE 3.5 mph - N/A   Clear
11:53 AM 72.0 °F 63.0 °F 73% 29.96 in 10.0 mi WSW 4.6 mph - N/A   Clear
12:53 PM 73.0 °F 62.1 °F 68% 29.93 in 10.0 mi South 3.5 mph - N/A   Overcast
1:53 PM 73.0 °F 62.1 °F 68% 29.90 in 10.0 mi NE 5.8 mph - N/A   Overcast
2:53 PM 72.0 °F 63.0 °F 73% 29.86 in 10.0 mi ENE 6.9 mph - N/A   Mostly Cloudy
3:53 PM 71.1 °F 64.0 °F 78% 29.87 in 9.0 mi NE 5.8 mph - 0.00 in Rain Light Rain
4:53 PM 68.0 °F 64.9 °F 90% 29.86 in 8.0 mi NNE 6.9 mph - 0.02 in Rain Light Rain
5:48 PM 66.2 °F 64.4 °F 94% 29.89 in 2.5 mi North 9.2 mph - 0.03 in Rain Light Rain
5:53 PM 66.0 °F 64.0 °F 93% 29.87 in 3.0 mi North 11.5 mph - 0.03 in Rain Light Rain
6:53 PM 63.0 °F 61.0 °F 93% 29.87 in 2.0 mi North 10.4 mph - 0.05 in Rain Heavy Rain
7:00 PM 62.6 °F 60.8 °F 94% 29.88 in 1.8 mi North 10.4 mph - 0.01 in Rain Rain
7:07 PM 62.6 °F 60.8 °F 94% 29.89 in 2.5 mi North 12.7 mph - 0.01 in Rain Light Rain
7:17 PM 62.6 °F 60.8 °F 94% 29.89 in 3.0 mi North 11.5 mph 19.6 mph 0.02 in Rain Light Rain
7:28 PM 62.6 °F 60.8 °F 94% 29.89 in 2.5 mi North 9.2 mph - 0.02 in Rain Light Rain
7:35 PM 62.6 °F 60.8 °F 94% 29.89 in 4.0 mi NNE 6.9 mph - 0.03 in Rain Light Rain
7:53 PM 62.1 °F 60.1 °F 93% 29.88 in 6.0 mi NNE 5.8 mph - 0.03 in   Overcast
8:53 PM 62.1 °F 59.0 °F 90% 29.89 in 9.0 mi NE 3.5 mph - N/A   Overcast
9:53 PM 62.1 °F 59.0 °F 90% 29.89 in 9.0 mi NE 3.5 mph - N/A   Overcast
10:53 PM 62.1 °F 60.1 °F 93% 29.89 in 8.0 mi Calm Calm - N/A   Overcast
11:53 PM 60.1 °F 57.9 °F 93% 29.89 in 6.0 mi Calm Calm - N/A   Scattered Clouds